Location: Newark
(40.0667°N, 18.0500°E)
Time: 18:21:01
(UTC+00:00)

N. Korean satellite - Pass Details

Date: 03 February 2020
Orbit: 456 x 506 km, 97.2° (Epoch: 17 February)

Event Time Altitude Azimuth Distance (km) Brightness Sun altitude
Rises 03:27:50 0° 36° (NE) 2,577 10.7 -28.4°
Reaches altitude 10° 03:31:10 10° 69° (ENE) 1,699 10.2 -27.8°
Maximum altitude 03:32:33 12° 91° (E) 1,591 10.1 -27.5°
Drops below altitude 10° 03:33:56 10° 114° (ESE) 1,702 10.1 -27.3°
Sets 03:37:15 0° 147° (SSE) 2,586 10.7 -26.6°
